View from above orbital plane
|
View from above satellite
|
Ground track
|
The orbit data is extracted from the following two-line orbital elements,
1 21398U 91039B 21059.42051632 .00000074 00000-0 66990-5 0 9991
2 21398 82.5216 47.2903 0022910 71.4129 288.9570 14.79790669582846
Epoch (UTC): | 28 February 2021 10:05:32 |
Eccentricity: | 0.0022910 |
inclination: | 82.5216° |
perigee height: | 614 km |
apogee height: | 646 km |
right ascension of ascending node: | 47.2903° |
argument of perigee: | 71.4129° |
revolutions per day: | 14.79790669 |
mean anomaly at epoch: | 288.9570° |
orbit number at epoch: | 58284 |
The dashed part of the orbit path shows where the satellite is in the earth's shadow,
|
|